www.pogodaiklimat.ru

ПОГОДА в Омолоне

АРХИВ ПОГОДЫ в Омолоне

Время (UTC), дата Ветер
(напр.,м/с)
 
Видим.   Явления Облачность Т
(С)
Тd
(С)
f
(%)
Тe
(С)
Тes
(С)
Комфортность P
(гПа)
Po
(гПа)
Тmin
(С)
Tmax
(С)
R
(мм)
S
(см)
18 9.01 СЗ 1
{3}
21 км снежные кристаллы 10/8 1000 м
[Sc As op]
-25.1 -28.2 75 -29 -29 1012.9 977.3
21 9.01 СЗ 2
{3}
18 км слабый снег 10/0
[Ac trans Cs]
-24.8 -28.0 75 -31 -31 опасность
обморожения
1014.2 978.5 -29.9 0.4 41
00 10.01 штиль 0
{3}
22 км снежные кристаллы 10/3 600 м
[Sc Ac trans Cs]
-26.2 -29.4 74 -26 -26 1015.2 979.4
03 10.01 СЗ 2
{4}
18 км слабый снег 10/5 600 м
[Sc As op]
-25.0 -28.1 75 -32 -32 опасность
обморожения
1016.8 981.0
06 10.01 З 1
{4}
8000 м слабый снег 10/6 600 м
[Sc As op]
-24.7 -27.8 75 -28 -28 1020.8 984.9
09 10.01 штиль 0
{3}
50 км в посл. час снег 8/0
[Ac trans Ci fib]
-29.9 -33.0 74 -30 -30 1023.7 987.0 -24.3 2
12 10.01 штиль 0
{2}
50 км ледяные иглы {снег} 3/0
[Ci fib]
-38.5 -42.7 64 -39 -39 опасность
обморожения
1027.6 989.4
15 10.01 штиль 0
{2}
6000 м дымка {снег} ясно -41.3 -45.1 66 -41 -41 опасность
обморожения
1030.0 991.4
18 10.01 штиль 0
{2}
7000 м дымка {снег} ясно -41.5 -46.3 59 -42 -42 опасность
обморожения
1032.4 993.5
21 10.01 ЮЗ 1
{2}
4800 м дымка ясно -42.1 -46.9 59 -48 -48 опасность
обморожения
1034.8 995.8 -42.3 46
00 11.01 Ю 1
{2}
4400 м дымка ясно -43.1 -47.5 62 -49 -49 опасность
обморожения
1038.0 998.7 -43.4
03 11.01 штиль 0
{1}
6000 м дымка 8/0
[Ac trans Ci fib]
-41.0 -45.8 60 -41 -41 опасность
обморожения
1039.1 1000.1
06 11.01 штиль 0
{1}
6000 м дымка 4/0
[Ac trans Ci fib]
-42.4 -46.9 61 -42 -42 опасность
обморожения
1041.1 1001.8
09 11.01 штиль 0
{1}
7000 м дымка 8/0
[Ac trans Ci fib]
-42.5 -46.9 62 -43 -43 опасность
обморожения
1043.0 1003.6 -40.7
12 11.01 штиль 0
{1}
6000 м дымка 8/0
[Ac trans Ci fib]
-42.6 -47.5 58 -43 -43 опасность
обморожения
1044.9 1005.3
15 11.01 штиль 0 7000 м дымка 10/0
[Ac trans Ci fib]
-41.8 -46.3 61 -42 -42 опасность
обморожения
1045.7 1006.3
18 11.01 штиль 0
{1}
9000 м дымка 10/0
[Ac trans Ci fib]
-40.3 -45.3 59 -40 -40 опасность
обморожения
1046.3 1007.3
21 11.01 штиль 0
{1}
6000 м дымка 6/0
[Ac trans Ci fib]
-41.0 -45.8 60 -41 -41 опасность
обморожения
1047.3 1008.0 -43.1 46
00 12.01 штиль 0
{1}
8000 м дымка 10/0
[Ac trans Ci fib]
-40.9 -45.8 59 -41 -41 опасность
обморожения
1049.0 1009.7
03 12.01 штиль 0
{1}
7000 м дымка 8/0
[Ac trans Ci fib]
-39.3 -44.3 59 -39 -39 опасность
обморожения
1048.8 1009.8
06 12.01 штиль 0
{1}
6000 м дымка 4/0
[Ac trans Ci fib]
-42.4 -46.9 61 -42 -42 опасность
обморожения
1050.4 1010.9
09 12.01 штиль 0
{1}
4700 м дымка ясно -43.6 -48.2 60 -44 -44 опасность
обморожения
1050.8 1011.0 -38.9
12 12.01 СВ 1
{1}
4700 м дымка ясно -43.9 -48.2 62 -50 -50 опасность
обморожения
1051.8 1012.0
15 12.01 штиль 0
{1}
4600 м дымка ясно -44.3 -49.7 55 -44 -44 опасность
обморожения
1052.2 1012.4
18 12.01 штиль 0
{1}
4600 м дымка ясно -45.3 -50.5 56 -45 -45 опасность
обморожения
1052.6 1012.6
21 12.01 штиль 0
{1}
4700 м дымка ясно -45.8 -51.3 54 -46 -46 опасность
обморожения
1053.0 1012.7 -45.8 46
00 13.01 штиль 0
{1}
4200 м дымка 5/0
[Ci fib]
-45.4 -50.5 56 -45 -45 опасность
обморожения
1052.5 1012.4 -46.3
03 13.01 штиль 0
{1}
4200 м дымка 8/0
[Ci fib]
-43.8 -48.2 61 -44 -44 опасность
обморожения
1051.2 1011.2
06 13.01 штиль 0
{1}
4100 м дымка 5/0
[Ci fib]
-45.5 -50.5 57 -46 -46 опасность
обморожения
1051.2 1010.9
09 13.01 штиль 0
{2}
4100 м дымка 6/0
[Ci fib]
-45.6 -51.3 52 -46 -46 опасность
обморожения
1050.1 1009.9 -43.7
12 13.01 штиль 0
{2}
4800 м дымка 6/0
[Ci fib]
-44.8 -50.5 53 -45 -45 опасность
обморожения
1048.5 1008.5
15 13.01 штиль 0
{2}
4700 м дымка 8/0
[Ci fib]
-44.1 -49.7 53 -44 -44 опасность
обморожения
1046.1 1006.4
18 13.01 штиль 0
{2}
5000 м дымка 8/0
[Ci fib]
-43.3 -48.2 58 -43 -43 опасность
обморожения
1043.7 1004.3
21 13.01 штиль 0
{2}
5000 м дымка 9/0
[Ci fib]
-44.3 -49.7 55 -44 -44 опасность
обморожения
1043.5 1003.9 -46.0 46
00 14.01 штиль 0
{1}
8000 м дымка 9/3 1000 м
[Sc Ac trans Ci fib]
-41.9 -46.9 58 -42 -42 опасность
обморожения
1042.2 1002.9
03 14.01 штиль 0
{1}
8000 м дымка 8/0
[Ac lent Ci fib]
-39.9 -44.8 59 -40 -40 опасность
обморожения
1040.4 1001.5
06 14.01 штиль 0
{2}
6000 м дымка 3/0
[Ci fib]
-41.2 -45.8 61 -41 -41 опасность
обморожения
1040.3 1001.3
09 14.01 штиль 0
{2}
8000 м дымка 9/0
[Ac lent Ci fib]
-39.0 -43.1 65 -39 -39 опасность
обморожения
1039.9 1001.3 -38.7
12 14.01 штиль 0
{1}
7000 м дымка 4/0
[Ci fib]
-40.4 -45.3 59 -40 -40 опасность
обморожения
1039.9 1001.1
15 14.01 штиль 0
{1}
7000 м дымка 3/0
[Ci fib]
-43.1 -47.5 62 -43 -43 опасность
обморожения
1040.5 1001.2
18 14.01 штиль 0
{1}
6000 м дымка 3/0
[Ci fib]
-44.2 -49.7 54 -44 -44 опасность
обморожения
1041.2 1001.6
21 14.01 штиль 0
{1}
4600 м дымка ясно -45.4 -50.5 56 -45 -45 опасность
обморожения
1042.0 1002.2 -45.4 46
00 15.01 штиль 0
{1}
4800 м дымка 3/0
[Ci fib]
-45.2 -50.5 55 -45 -45 опасность
обморожения
1042.5 1002.7
03 15.01 штиль 0
{1}
6000 м дымка 4/0
[Ci fib]
-43.1 -47.5 62 -43 -43 опасность
обморожения
1041.9 1002.5
06 15.01 штиль 0
{1}
4700 м дымка 5/0
[Ac trans Ci fib]
-43.8 -49.0 56 -44 -44 опасность
обморожения
1042.3 1002.5
09 15.01 штиль 0
{1}
4800 м дымка 3/0
[Ci fib]
-45.5 -50.5 57 -46 -46 опасность
обморожения
1043.1 1003.1 -43.0
12 15.01 штиль 0
{1}
4700 м дымка 4/0
[Ci fib]
-46.1 -51.3 55 -46 -46 опасность
обморожения
1043.3 1003.3
15 15.01 штиль 0 4600 м дымка 3/0
[Ci fib]
-46.7 -52.2 53 -47 -47 опасность
обморожения
1042.7 1002.6
18 15.01 штиль 0
{1}
4800 м дымка 3/0
[Ci fib]
-46.8 -52.2 54 -47 -47 опасность
обморожения
1042.2 1002.1
21 15.01 штиль 0
{1}
6000 м дымка 4/0
[Ci fib]
-46.5 -52.2 52 -47 -47 опасность
обморожения
1041.7 1001.6 -47.6 46
00 16.01 штиль 0
{1}
6000 м дымка 4/0
[Ac trans Ci fib]
-46.0 -51.3 55 -46 -46 опасность
обморожения
1042.1 1002.1
03 16.01 штиль 0
{1}
7000 м дымка 6/0
[Ac trans Ci fib]
-43.8 -49.0 56 -44 -44 опасность
обморожения
1040.5 1001.0
06 16.01 штиль 0
{1}
6000 м дымка 8/0
[Ac trans Ci fib]
-43.4 -48.2 59 -43 -43 опасность
обморожения
1040.2 1000.9
09 16.01 штиль 0
{1}
4600 м дымка 5/0
[Ac trans Ci fib]
-44.1 -49.7 53 -44 -44 опасность
обморожения
1040.0 1000.5 -43.2
12 16.01 штиль 0
{1}
4600 м дымка 3/0
[Ci fib]
-44.9 -50.5 53 -45 -45 опасность
обморожения
1040.0 1000.3
15 16.01 штиль 0
{1}
6000 м дымка 6/0
[Ac trans Ci fib]
-41.4 -46.3 59 -41 -41 опасность
обморожения
1038.4 999.4

 

Местоположение метеостанции Омолон (Чукотка, Россия): широта 65.23 долгота 160.50 высота над уровнем моря 260 м.

В архиве по умолчанию представлена погода в Омолоне за последнюю неделю. Архивные данные за месяц целиком и за предыдущие месяцы, начиная с января 2011 года, Вы можете получить, выбрав интересующий диапазон дат из раскрывающегося списка и нажав кнопку "Ввод!".

Внимание! Время в таблицах - всемирное. Для получения местного времени необходимо прибавить поправку, которая в Омолоне равна 12 ч.

Ветер - указаны скорость ветра в м/с - средняя за 10 мин, порывы в срок и между сроками (в фигурных скобках) и направление, откуда дует ветер: С - северный, СВ - северо-восточный, В - восточный, ЮВ - юго-восточный, Ю - южный, ЮЗ - юго-западный, З - западный, СЗ - северо-западный.
Видимость - горизонтальная дальность видимости в метрах или километрах. При видимости от 1 до 10 км при отсутствии осадков обычно наблюдается дымка, при ухудшении видимости до 1 км и менее - туман. В сухую погоду видимость может ухудшаться дымом, пылью или мглою.
Явления - указаны атмосферные явления, наблюдавшиеся в срок или в последний час перед сроком; фигурными скобками обозначены явления, наблюдавшиеся между сроками (за 1-3 часа до срока); квадратными скобками обозначены град или гололедные отложения с указанием их диаметра в мм.
Облачность - указаны через наклонную черту общая и нижняя облачность в баллах и высота нижней границы облаков в метрах; квадратными скобками обозначены формы облаков: Ci - перистые, Cs - перисто-слоистые, Cc - перисто-кучевые, Ac - высококучевые, As - высокослоистые, Sc - слоисто-кучевые, Ns - слоисто-дождевые, Cu - кучевые, Cb - кучево-дождевые. Подробнее классификацию облаков см. в Атласе облаков (PDF).
T - Температура воздуха - температура, измеренная на высоте 2 м над землей.
Td - Температура точки росы - температура, при понижении до которой содержащийся в воздухе водяной пар достигнет насыщения.
f - Относительная влажность воздуха - влажноcть воздуха, измеренная на высоте 2 м над землей.
Te - Эффективная температура - температура, которую ощущает одетый по сезону человек в тени. Характеристика душности погоды. При расчете учитывается влияние влажности воздуха и скорости ветра на теплоощущения человека.
Tes - Эффективная температура на солнце - температура, которую ощущает человек, с поправкой на солнечный нагрев. Характеристика знойности погоды. Зависит от высоты солнца над горизонтом, облачности и скорости ветра. Ночью, в пасмурную погоду, а также при ветре 12 м/с и более поправка равна нулю.
P - Атмосферное давление - приведенное к уровню моря атмосферное давление.
Po - Атмосферное давление - измеренное на уровне метеостанции атмосферное давление.
Tmin - Минимальная температура - минимум температуры воздуха на высоте 2 м над землей.
Tmax - Максимальная температура - максимум температуры воздуха на высоте 2 м над землей.
R - Количество осадков - Количество выпавших осадков, мм. При наведении курсора мыши на число - период времени, за который выпало указанное количество осадков.
S - Снежный покров - Высота снежного покрова, см. При наведении курсора мыши на число - состояние снежного покрова и степень покрытия местности в баллах.